SCP
0 0 0 0 0 0 0 0 0 0 0 0 0 0 0 0 0 0 0 0 0 0 0 0 0 0 0 0 0 0 0 0 0 0 0 0 0 0 0 0 0 0 0 0
0 0 0 0 0 0 0 0 0 0 0 0 0 0 0 0 0 0 0 0 0 0 0 0 0 0 0 0 0 0 0 0 0 0 0 0 0 0 0 0 0 0 0 0
0 0 0 0 0 0 0 0 0 0 0 0 0 0 0 0 0 0 0 0 0 0 0 0 0 0 0 0 0 0 0 0 0 0 0 0 0 0 0 0 0 0 0 0
0 0 0 0 0 0 0 0 0 0 0 0 0 0 0 0 0 0 0 0 0 0 0 0 0 0 0 0 0 0 0 0 0 0 0 0 0 0 0 0 0 0 0 0
0 0 0 0 0 0 0 0 0 0 0 0 0 0 0 0 0 0 0 0 -0 0 0 0 0 0 0 0 0 0 0 0 0 0 0 0 0 0 0 0 0 0 0 0
0 0 0 0 0 0 0 0 0 0 0 0 0 0 0 0 0 0 0 0 0 0 0 0 0 0 0 0 0 0 0 0 0 0 0 0 0 0 0 0 0 0 0 0
0 0 0 0 0 0 0 0 0 0 0 0 0 0 0 0 0 0 0 0 0 0 0 0 0 0 0 0 0 0 0 0 0 0 0 0 0 0 0 0 0 0 0 0
0 0 0 0 0 0 0 0 0 0 0 0 0 0 0 0 0 0 0 0 0 0 0 0 0 0 0 0 0 0 0 0 0 0 0 0 0 0 0 0 0 0 0 0
0 0 0 0 0 0 0 0 0 0 0 0 0 0 0 0 0 0 0 0 0 0 0 0 0 0 0 0 0 0 0 0 0 0 0 0 0 0 0 0 0 0 0 0
0 0 0 0 0 0 0 0 0 0 0 0 0 0 0 0 0 0 0 0 0 0 0 0 0 0 0 0 0 0 0 0 0 0 0 0 0 0 0 0 0 0 0 0
0 0 0 0 0 0 0 0 0 0 0 0 0 0 0 0 0 0 0 0 0 0 0 0 0 0 0 0 0 0 0 0 0 0 0 0 0 0 0 0 0 0 0 0
0 0 0 0 0 0 0 0 0 0 0 0 0 0 0 0 0 0 0 0 0 0 0 0 0 0 0 0 0 0 0 0 0 0 0 0 0 0 0 0 0 0 0 0
0 0 0 0 0 0 0 0 0 0 0 0 0 0 0 0 0 0 0 0 0 0 0 0 0 0 0 0 0 0 0 0 0 0 0 0 0 0 0 0 0 0 0 0
0 0 0 0 0 0 0 0 0 0 0 0 0 0 0 0 0 0 0 0 0 0 0 0 0 0 0 0 0 0 0 0 0 0 0 0 0 0 0 0 0 0 0 0
0 0 0 0 0 0 0 0 0 0 0 0 0 0 0 0 0 0 0 0 0 0 0 0 0 0 0 0 0 0 0 0 0 0 0 0 0 0 -0 0 0 0 0 0
0 0 0 0 0 0 0 0 0 0 0 0 0 0 0 0 0 0 -0 0 0 0 0 0 0 0 0 0 0 0 0 0 0 -0 -0 -0 0 -0 -0 0 0 -0 -0 -0
0 0 0 0 0 0 0 0 0 0 0 0 0 0 0 0 0 0 0 0 0 0 0 0 0 0 0 0 0 0 0 -0 -0 -0 -0 -0 -0 -0 -0 -0 -0 -0 0 0
0 0 0 0 0 0 0 0 0 0 0 0 0 0 0 0 0 0 0 0 0 0 0 0 0 0 0 0 0 -0 -0 -0 -0 -0 -0 -0 -0 -0 -0 -0 -0 -0 -0 -0
0 0 0 0 0 0 0 0 0 0 0 0 0 0 0 0 0 0 0 0 0 0 0 0 0 0 0 0 -0 -0 -0 -0 -0 -0 -0 -0 -0 -0 -0 -0 -0 -0 -0 -0
0 0 0 0 0 0 0 0 0 0 0 0 0 0 0 0 0 0 0 0 0 0 0 0 0 -0 -0 -0 -0 -0 -0 -0 -0 -0 -0 -0 -0 -0 -0 -0 -0 -0 -0 -0
0 0 0 0 0 0 0 0 0 0 0 0 0 0 0 0 0 0 0 0 0 0 0 0 0 0 -0 -0 -0 -0 -0 -0 -0 -0 -0 -0 -0 -0 -0 -0 -0 -0 -0 -0
0 0 0 0 0 0 0 0 0 0 0 0 0 0 0 0 0 0 0 0 0 0 0 0 -0 -0 -0 -0 -0 -0 -0 -0 -0 -0 -0 -0 -0 -0 -0 -0 -0 -0 -0 -0
0 0 0 0 0 0 0 0 0 0 0 0 0 0 0 0 0 0 0 0 0 0 0 0 -0 -0 -0 -0 -0 -0 -0 -0 -0 -0 0 0 0 0 0 0 0 -0 -0 -0
0 0 0 0 0 0 0 0 0 0 0 0 0 0 0 0 0 0 0 0 0 0 0 -0 -0 0 0 0 -0 -0 0 0 0 0 0 0 0 0 0 0 0 0 0 0
0 0 0 0 0 0 0 0 0 0 0 0 0 0 0 0 0 0 0 0 0 0 0 0 0 0 -0 -0 -0 -0 -0 -0 0 0 0 0 0 0 0 0 0 0 0 -0
0 0 0 0 0 0 0 0 0 0 0 0 0 0 0 0 0 0 0 0 0 0 0 0 -0 -0 -0 -0 -0 -0 -0 -0 0 0 0 0 0 0 0 0 0 -0 -0 0
Wind_Speed_500mb
16 10 32 21 9 4 4 6 11 2 1 5 10 21 25 44 54 52 61 72 72 80 75 69 66 58 70 64 67 68 70 66 65 69 74 78 74 72 76 73 70 69 68 68
9 43 8 9 10 14 12 16 14 3 3 2 11 40 31 35 52 60 61 70 87 90 86 84 75 64 60 71 69 70 71 72 73 70 69 75 79 76 71 78 74 70 72 73
25 1 32 20 10 21 26 34 21 14 4 7 5 40 43 37 54 67 65 73 86 88 95 95 87 79 76 72 73 76 76 73 78 74 74 77 77 83 83 81 81 77 76 74
22 22 15 10 26 19 29 14 13 15 8 19 13 28 29 20 19 22 50 67 76 79 86 82 84 86 80 81 81 78 78 78 76 78 82 82 81 84 78 76 81 80 77 75
13 19 27 20 33 18 19 14 22 15 12 6 28 14 10 5 38 37 38 61 51 60 59 60 59 62 57 56 64 75 71 64 65 76 84 86 88 85 83 84 80 79 79 78
7 3 15 19 11 26 6 9 5 6 10 20 54 20 40 30 34 11 11 28 25 16 11 13 12 12 17 22 28 35 44 44 51 62 72 80 82 84 86 86 85 79 79 78
14 19 7 4 12 10 17 11 8 12 14 19 10 18 45 39 16 24 18 4 9 21 32 37 33 27 21 15 11 7 2 6 18 32 45 55 62 68 77 81 86 88 90 88
28 16 28 14 15 12 26 34 14 16 9 8 1 18 24 27 53 62 54 19 19 34 40 41 38 36 32 29 28 24 18 13 9 6 10 21 39 54 65 72 78 86 88 87
22 16 2 6 12 21 10 27 29 5 4 1 9 14 19 17 15 5 34 40 33 35 40 41 38 38 33 27 24 21 20 19 17 13 14 17 21 25 38 49 60 72 78 79
13 3 5 5 6 12 17 7 16 11 18 15 11 11 18 9 10 11 17 39 32 36 37 40 43 39 35 30 26 18 20 27 26 22 21 23 27 29 31 34 41 49 57 65
10 7 4 5 17 19 11 10 10 7 10 9 3 11 8 17 15 27 27 46 38 35 40 40 39 36 34 29 26 28 29 34 34 36 33 30 29 33 35 36 38 41 47 55
14 8 8 15 4 6 4 18 16 4 2 2 3 11 19 18 4 15 27 28 34 42 43 39 37 34 34 33 32 35 34 36 39 40 42 43 42 39 40 43 45 45 46 45
22 11 8 6 4 6 9 10 10 8 5 12 5 5 17 42 43 50 49 50 45 40 39 36 36 38 36 33 32 36 39 41 42 43 45 47 50 52 51 50 51 52 55 54
43 10 18 23 10 11 13 20 22 12 6 10 11 6 1 13 22 29 41 26 22 29 32 35 38 39 42 40 39 41 46 49 48 47 50 52 55 58 61 61 59 57 57 59
23 15 8 3 2 5 8 16 32 33 31 14 14 23 27 11 9 3 2 6 2 11 14 27 35 40 45 44 43 47 52 56 57 57 58 60 61 62 64 66 67 68 67 64
9 6 7 4 6 9 12 22 25 36 16 11 12 11 13 28 23 23 24 17 13 14 15 23 27 39 47 50 48 53 60 62 66 67 68 67 69 68 69 72 73 75 77 76
27 14 10 12 7 4 12 28 29 28 25 19 22 17 15 14 22 25 30 25 17 13 14 25 35 42 53 55 56 64 68 73 77 80 81 85 87 85 84 82 81 81 83 83
23 16 3 6 8 17 8 4 23 31 13 7 7 6 13 40 40 37 23 19 12 15 21 31 38 46 50 57 63 68 72 74 77 79 84 88 92 96 98 94 89 87 87 87
19 11 6 10 9 10 9 10 16 20 19 6 12 14 41 53 50 24 13 8 10 18 22 29 34 46 50 57 63 70 77 82 84 89 92 93 94 97 100 103 104 101 98 97
9 13 9 6 10 18 10 8 11 9 14 13 19 13 34 41 17 9 3 6 13 18 24 31 43 49 57 66 72 76 76 79 84 91 97 100 104 106 107 104 101 100 100 106
15 10 24 7 7 14 8 3 5 12 10 24 30 20 19 11 9 14 2 9 18 23 32 42 50 59 63 68 74 78 80 83 87 89 92 94 96 100 103 107 107 106 103 102
16 15 7 7 6 16 4 5 17 16 24 38 31 22 25 23 12 3 7 14 21 30 37 43 50 54 60 66 72 74 77 83 85 90 94 96 97 96 97 99 99 99 100 102
6 12 13 12 9 8 9 10 22 26 47 34 31 24 19 13 4 5 11 18 24 29 35 41 48 52 56 59 62 67 72 78 83 85 88 91 93 92 92 96 97 98 95 95
7 5 7 8 6 13 18 24 32 41 41 39 29 22 16 11 5 3 9 15 21 28 34 40 43 44 46 48 51 55 60 64 69 75 79 83 85 87 88 88 88 87 89 90
5 15 13 7 10 15 14 23 37 38 37 32 26 19 14 9 3 3 6 11 17 23 28 31 34 36 39 43 46 49 55 61 65 69 76 82 85 89 92 88 87 83 77 72
4 10 11 9 26 11 21 48 39 36 32 27 23 21 17 14 9 7 8 11 14 16 19 23 27 32 36 39 42 44 47 52 59 66 73 77 84 87 88 91 94 82 66 66
Wind_Direction_500mb
186 205 221 207 206 255 41 258 235 84 293 347 272 281 278 289 289 284 283 281 281 272 269 269 269 267 254 253 258 258 258 258 251 250 249 250 251 254 256 255 256 257 258 259
182 230 156 193 189 222 229 257 254 274 275 222 309 289 286 282 280 277 273 274 276 271 270 261 259 262 260 254 253 253 257 258 255 254 257 255 257 258 261 262 262 262 261 260
213 209 172 183 183 216 232 236 243 254 214 268 7 280 281 274 254 268 268 273 274 266 267 265 257 257 257 257 256 257 261 260 261 258 257 257 254 257 257 259 262 261 262 262
222 216 159 172 221 190 238 176 184 203 194 255 150 280 274 292 270 258 274 280 273 273 273 274 268 258 259 262 267 266 262 262 263 258 254 256 260 258 266 269 270 269 271 271
209 165 184 200 217 171 243 166 198 209 232 313 241 251 281 311 286 279 264 273 289 284 271 273 271 270 271 271 272 269 264 272 269 263 258 259 259 264 268 268 271 273 275 274
204 151 169 208 186 184 123 98 134 180 225 241 249 217 273 262 253 271 268 304 314 320 271 249 271 282 271 267 273 252 255 258 260 261 264 264 265 267 268 270 272 277 279 279
182 212 165 208 177 157 176 151 235 232 203 242 246 193 241 263 253 249 264 316 102 98 98 95 95 91 84 75 63 59 108 227 262 270 272 274 272 273 274 275 276 277 278 279
211 215 197 180 211 178 199 203 215 232 221 238 58 213 244 238 263 244 255 210 136 114 98 90 87 86 80 74 69 66 76 69 60 13 324 290 279 275 276 278 278 279 280 282
197 223 122 195 176 177 171 223 230 266 93 176 219 276 293 253 267 259 195 163 144 110 93 82 82 83 80 75 64 47 39 40 29 8 347 342 335 304 284 279 280 283 284 284
176 110 206 167 145 252 205 351 212 204 223 229 240 263 244 329 244 171 158 158 134 110 93 84 87 82 76 70 63 47 29 24 20 11 358 345 338 332 327 313 296 285 281 284
138 102 218 188 203 197 176 210 255 242 188 178 224 252 252 272 197 178 171 153 131 96 92 92 86 78 71 65 56 46 36 26 22 21 14 357 342 338 337 331 324 313 301 291
164 139 184 203 119 132 278 207 186 243 187 222 218 260 351 340 291 144 144 125 82 97 96 90 82 76 64 54 45 39 32 25 19 13 8 6 1 354 344 339 335 328 318 310
162 196 182 310 265 188 218 197 161 117 119 220 254 251 21 41 38 63 69 58 61 66 73 69 60 53 48 42 34 28 21 18 11 5 357 353 352 351 350 346 339 334 328 322
160 167 199 214 201 143 198 197 192 177 190 174 213 223 13 23 35 37 66 67 32 25 30 37 39 33 28 26 20 15 10 6 2 358 353 350 347 343 340 338 335 333 329 324
171 202 184 292 307 152 185 178 195 206 222 197 197 188 190 192 139 147 252 264 298 50 32 20 19 14 8 11 7 1 357 353 350 348 345 342 338 335 333 330 327 326 324 321
180 186 126 227 185 192 234 229 215 221 226 254 166 249 211 193 171 162 156 147 103 68 34 8 13 1 358 359 355 348 345 344 342 339 337 334 330 329 327 324 323 321 318 317
174 143 170 216 153 145 290 216 203 214 218 207 203 218 146 157 143 112 103 99 74 53 14 4 356 355 355 350 344 341 341 339 339 337 334 332 330 328 326 323 320 318 315 313
175 142 155 167 135 225 240 163 184 192 198 200 114 54 132 130 108 104 100 107 80 26 1 354 344 351 348 339 338 339 339 338 336 333 330 328 325 324 324 324 322 318 314 311
167 135 141 153 205 307 278 187 152 177 219 208 137 104 117 121 110 84 113 94 36 359 343 337 341 343 340 340 340 340 342 340 336 331 327 326 324 323 322 320 320 320 318 314
138 174 142 149 172 212 233 136 46 103 256 168 149 140 159 163 186 142 145 5 347 339 338 334 338 341 342 343 340 338 335 331 329 326 326 325 325 323 321 320 319 316 315 312
166 169 198 157 215 285 241 359 72 132 231 136 141 142 160 161 101 149 289 330 339 341 339 338 342 345 344 341 341 339 336 334 331 327 325 324 322 320 319 318 317 316 316 312
168 155 173 117 165 260 108 121 178 123 118 141 137 128 111 127 144 168 327 337 340 343 345 346 348 352 352 348 344 342 339 336 333 331 331 329 327 326 322 319 318 317 317 314
212 183 172 187 200 79 66 92 139 156 145 151 146 143 141 144 167 315 344 346 347 348 351 353 356 358 355 351 347 344 342 338 336 335 333 333 332 333 331 328 325 324 325 322
251 167 118 115 149 133 124 128 141 156 150 152 153 152 155 160 166 344 355 352 357 360 2 2 1 358 357 358 356 352 347 346 346 346 346 346 344 342 340 337 336 333 333 331
182 132 133 77 114 116 177 165 150 144 145 146 147 151 153 155 150 46 28 17 17 18 14 6 2 6 6 5 4 0 358 355 355 354 353 353 352 353 351 349 347 340 338 328
203 158 177 203 174 135 158 169 164 156 152 150 152 149 149 151 139 107 74 54 48 43 36 28 21 17 15 10 6 4 359 356 356 357 357 357 356 355 354 352 349 352 342 330
Wind_Speed_850mb
16 10 32 21 9 4 4 6 11 2 1 5 10 21 25 44 54 52 61 72 72 80 75 69 66 58 70 64 67 68 70 66 65 69 74 78 74 72 76 73 70 69 68 68
9 43 8 9 10 14 12 16 14 3 3 2 11 40 31 35 52 60 61 70 87 90 86 84 75 64 60 71 69 70 71 72 73 70 69 75 79 76 71 78 74 70 72 73
25 1 32 20 10 21 26 34 21 14 4 7 5 40 43 37 54 67 65 73 86 88 95 95 87 79 76 72 73 76 76 73 78 74 74 77 77 83 83 81 81 77 76 74
22 22 15 10 26 19 29 14 13 15 8 19 13 28 29 20 19 22 50 67 76 79 86 82 84 86 80 81 81 78 78 78 76 78 82 82 81 84 78 76 81 80 77 75
13 19 27 20 33 18 19 14 22 15 12 6 28 14 10 5 38 37 38 61 51 60 59 60 59 62 57 56 64 75 71 64 65 76 84 86 88 85 83 84 80 79 79 78
7 3 15 19 11 26 6 9 5 6 10 20 54 20 40 30 34 11 11 28 25 16 11 13 12 12 17 22 28 35 44 44 51 62 72 80 82 84 86 86 85 79 79 78
14 19 7 4 12 10 17 11 8 12 14 19 10 18 45 39 16 24 18 4 9 21 32 37 33 27 21 15 11 7 2 6 18 32 45 55 62 68 77 81 86 88 90 88
28 16 28 14 15 12 26 34 14 16 9 8 1 18 24 27 53 62 54 19 19 34 40 41 38 36 32 29 28 24 18 13 9 6 10 21 39 54 65 72 78 86 88 87
22 16 2 6 12 21 10 27 29 5 4 1 9 14 19 17 15 5 34 40 33 35 40 41 38 38 33 27 24 21 20 19 17 13 14 17 21 25 38 49 60 72 78 79
13 3 5 5 6 12 17 7 16 11 18 15 11 11 18 9 10 11 17 39 32 36 37 40 43 39 35 30 26 18 20 27 26 22 21 23 27 29 31 34 41 49 57 65
10 7 4 5 17 19 11 10 10 7 10 9 3 11 8 17 15 27 27 46 38 35 40 40 39 36 34 29 26 28 29 34 34 36 33 30 29 33 35 36 38 41 47 55
14 8 8 15 4 6 4 18 16 4 2 2 3 11 19 18 4 15 27 28 34 42 43 39 37 34 34 33 32 35 34 36 39 40 42 43 42 39 40 43 45 45 46 45
22 11 8 6 4 6 9 10 10 8 5 12 5 5 17 42 43 50 49 50 45 40 39 36 36 38 36 33 32 36 39 41 42 43 45 47 50 52 51 50 51 52 55 54
43 10 18 23 10 11 13 20 22 12 6 10 11 6 1 13 22 29 41 26 22 29 32 35 38 39 42 40 39 41 46 49 48 47 50 52 55 58 61 61 59 57 57 59
23 15 8 3 2 5 8 16 32 33 31 14 14 23 27 11 9 3 2 6 2 11 14 27 35 40 45 44 43 47 52 56 57 57 58 60 61 62 64 66 67 68 67 64
9 6 7 4 6 9 12 22 25 36 16 11 12 11 13 28 23 23 24 17 13 14 15 23 27 39 47 50 48 53 60 62 66 67 68 67 69 68 69 72 73 75 77 76
27 14 10 12 7 4 12 28 29 28 25 19 22 17 15 14 22 25 30 25 17 13 14 25 35 42 53 55 56 64 68 73 77 80 81 85 87 85 84 82 81 81 83 83
23 16 3 6 8 17 8 4 23 31 13 7 7 6 13 40 40 37 23 19 12 15 21 31 38 46 50 57 63 68 72 74 77 79 84 88 92 96 98 94 89 87 87 87
19 11 6 10 9 10 9 10 16 20 19 6 12 14 41 53 50 24 13 8 10 18 22 29 34 46 50 57 63 70 77 82 84 89 92 93 94 97 100 103 104 101 98 97
9 13 9 6 10 18 10 8 11 9 14 13 19 13 34 41 17 9 3 6 13 18 24 31 43 49 57 66 72 76 76 79 84 91 97 100 104 106 107 104 101 100 100 106
15 10 24 7 7 14 8 3 5 12 10 24 30 20 19 11 9 14 2 9 18 23 32 42 50 59 63 68 74 78 80 83 87 89 92 94 96 100 103 107 107 106 103 102
16 15 7 7 6 16 4 5 17 16 24 38 31 22 25 23 12 3 7 14 21 30 37 43 50 54 60 66 72 74 77 83 85 90 94 96 97 96 97 99 99 99 100 102
6 12 13 12 9 8 9 10 22 26 47 34 31 24 19 13 4 5 11 18 24 29 35 41 48 52 56 59 62 67 72 78 83 85 88 91 93 92 92 96 97 98 95 95
7 5 7 8 6 13 18 24 32 41 41 39 29 22 16 11 5 3 9 15 21 28 34 40 43 44 46 48 51 55 60 64 69 75 79 83 85 87 88 88 88 87 89 90
5 15 13 7 10 15 14 23 37 38 37 32 26 19 14 9 3 3 6 11 17 23 28 31 34 36 39 43 46 49 55 61 65 69 76 82 85 89 92 88 87 83 77 72
4 10 11 9 26 11 21 48 39 36 32 27 23 21 17 14 9 7 8 11 14 16 19 23 27 32 36 39 42 44 47 52 59 66 73 77 84 87 88 91 94 82 66 66
Wind_Direction_850mb
186 205 221 207 206 255 41 258 235 84 293 347 272 281 278 289 289 284 283 281 281 272 269 269 269 267 254 253 258 258 258 258 251 250 249 250 251 254 256 255 256 257 258 259
182 230 156 193 189 222 229 257 254 274 275 222 309 289 286 282 280 277 273 274 276 271 270 261 259 262 260 254 253 253 257 258 255 254 257 255 257 258 261 262 262 262 261 260
213 209 172 183 183 216 232 236 243 254 214 268 7 280 281 274 254 268 268 273 274 266 267 265 257 257 257 257 256 257 261 260 261 258 257 257 254 257 257 259 262 261 262 262
222 216 159 172 221 190 238 176 184 203 194 255 150 280 274 292 270 258 274 280 273 273 273 274 268 258 259 262 267 266 262 262 263 258 254 256 260 258 266 269 270 269 271 271
209 165 184 200 217 171 243 166 198 209 232 313 241 251 281 311 286 279 264 273 289 284 271 273 271 270 271 271 272 269 264 272 269 263 258 259 259 264 268 268 271 273 275 274
204 151 169 208 186 184 123 98 134 180 225 241 249 217 273 262 253 271 268 304 314 320 271 249 271 282 271 267 273 252 255 258 260 261 264 264 265 267 268 270 272 277 279 279
182 212 165 208 177 157 176 151 235 232 203 242 246 193 241 263 253 249 264 316 102 98 98 95 95 91 84 75 63 59 108 227 262 270 272 274 272 273 274 275 276 277 278 279
211 215 197 180 211 178 199 203 215 232 221 238 58 213 244 238 263 244 255 210 136 114 98 90 87 86 80 74 69 66 76 69 60 13 324 290 279 275 276 278 278 279 280 282
197 223 122 195 176 177 171 223 230 266 93 176 219 276 293 253 267 259 195 163 144 110 93 82 82 83 80 75 64 47 39 40 29 8 347 342 335 304 284 279 280 283 284 284
176 110 206 167 145 252 205 351 212 204 223 229 240 263 244 329 244 171 158 158 134 110 93 84 87 82 76 70 63 47 29 24 20 11 358 345 338 332 327 313 296 285 281 284
138 102 218 188 203 197 176 210 255 242 188 178 224 252 252 272 197 178 171 153 131 96 92 92 86 78 71 65 56 46 36 26 22 21 14 357 342 338 337 331 324 313 301 291
164 139 184 203 119 132 278 207 186 243 187 222 218 260 351 340 291 144 144 125 82 97 96 90 82 76 64 54 45 39 32 25 19 13 8 6 1 354 344 339 335 328 318 310
162 196 182 310 265 188 218 197 161 117 119 220 254 251 21 41 38 63 69 58 61 66 73 69 60 53 48 42 34 28 21 18 11 5 357 353 352 351 350 346 339 334 328 322
160 167 199 214 201 143 198 197 192 177 190 174 213 223 13 23 35 37 66 67 32 25 30 37 39 33 28 26 20 15 10 6 2 358 353 350 347 343 340 338 335 333 329 324
171 202 184 292 307 152 185 178 195 206 222 197 197 188 190 192 139 147 252 264 298 50 32 20 19 14 8 11 7 1 357 353 350 348 345 342 338 335 333 330 327 326 324 321
180 186 126 227 185 192 234 229 215 221 226 254 166 249 211 193 171 162 156 147 103 68 34 8 13 1 358 359 355 348 345 344 342 339 337 334 330 329 327 324 323 321 318 317
174 143 170 216 153 145 290 216 203 214 218 207 203 218 146 157 143 112 103 99 74 53 14 4 356 355 355 350 344 341 341 339 339 337 334 332 330 328 326 323 320 318 315 313
175 142 155 167 135 225 240 163 184 192 198 200 114 54 132 130 108 104 100 107 80 26 1 354 344 351 348 339 338 339 339 338 336 333 330 328 325 324 324 324 322 318 314 311
167 135 141 153 205 307 278 187 152 177 219 208 137 104 117 121 110 84 113 94 36 359 343 337 341 343 340 340 340 340 342 340 336 331 327 326 324 323 322 320 320 320 318 314
138 174 142 149 172 212 233 136 46 103 256 168 149 140 159 163 186 142 145 5 347 339 338 334 338 341 342 343 340 338 335 331 329 326 326 325 325 323 321 320 319 316 315 312
166 169 198 157 215 285 241 359 72 132 231 136 141 142 160 161 101 149 289 330 339 341 339 338 342 345 344 341 341 339 336 334 331 327 325 324 322 320 319 318 317 316 316 312
168 155 173 117 165 260 108 121 178 123 118 141 137 128 111 127 144 168 327 337 340 343 345 346 348 352 352 348 344 342 339 336 333 331 331 329 327 326 322 319 318 317 317 314
212 183 172 187 200 79 66 92 139 156 145 151 146 143 141 144 167 315 344 346 347 348 351 353 356 358 355 351 347 344 342 338 336 335 333 333 332 333 331 328 325 324 325 322
251 167 118 115 149 133 124 128 141 156 150 152 153 152 155 160 166 344 355 352 357 360 2 2 1 358 357 358 356 352 347 346 346 346 346 346 344 342 340 337 336 333 333 331
182 132 133 77 114 116 177 165 150 144 145 146 147 151 153 155 150 46 28 17 17 18 14 6 2 6 6 5 4 0 358 355 355 354 353 353 352 353 351 349 347 340 338 328
203 158 177 203 174 135 158 169 164 156 152 150 152 149 149 151 139 107 74 54 48 43 36 28 21 17 15 10 6 4 359 356 356 357 357 357 356 355 354 352 349 352 342 330